THOR ABLESTAR DEB, 715

Orbit data source: Space-Track

THOR ABLESTAR DEB, 715 is space debris in LEO originally from a launch on Thu, 05 Dec 1963 UTC launched from the Air Force Western Test Range (AFWTR). Debris objects in space refer to the collection of defunct objects orbiting the Earth. Examples of debris include non-operational satellites, rocket bodies, and fragments generated from explosions, collisions, or faulty payload assembly.

Loading next visibility...
Identifier
715, 1963-049E
Orbit
LEO
Country
Flag of USUS
Related business
Manufacturer
Unknown
Mission
Spacecraft
Bus & Motor
Unknown
Mass
Unknown
Launch date (UTC)
1963-12-05 (62 years ago)
Launch vehicle
Unknown
Launch site
Air Force Western Test Range (AFWTR)
Object type
Payload
Rocket body
Debris
Shape & HBR
Unknown shape, 0.1 m
Radar Cross Section
Small (<0.1 m²)

Expand to show TLE details & history
Last TLE update: 18 hours ago

TLE from 18 hours ago
0 THOR ABLESTAR DEB
1   715U 63049E   26125.34065561  .00000877  00000-0  89831-3 0  9995
2   715  89.9090  77.9371 0027202 297.4588 215.2613 13.75577693 97492
Epoch: 2026-05-05T08:10Z
TLE epoch observation values (Epoch: 2026-05-05T08:10:32.644Z)
Latitude
27.49676°
Longitude
-87.96294°
Altitude
999.431 km
Speed
7.346 km/s
True Right ascension
17h 11m 33s
True Declination
27° 21' 39"
Sunlit
Object was in full shadow at epoch
Visualization orbit readout
Latitude
Unknown
Longitude
Unknown
Altitude
Unknown
Speed
Unknown
Apparent Right ascension
Unknown
Apparent Declination
Unknown
Sunlit
N/A
Visualization observer readout
Local Sidereal Time
10:34:35
Azimuth
Unknown
Elevation
Unknown
Doppler factor
Unknown
Orbital elements
Apogee altitude
996.633 km
Perigee altitude
956.62 km
Semi-major axis
7,354.764 km
Eccentricity
0.00272
Inclination
89.909°
RAAN
77.9371°
Arg. of periapsis
297.4588°
True anomaly
215.08185°
Mean anomaly
215.2613°
Eccentric anomaly
215.17152°
Mean motion
3.44104 °/min
Orbital period
104.62 mins
BSTAR
0.00089831
Loading maneuver chart data...
Computing Atmospheric mass density...
Loading historical data...
Loading historical data...
Loading historical data...
Loading historical data...
Loading historical data...
Loading historical data...
Loading historical data...

Documentation

Showing up to 5 results
|